Flight Track Log - Related Links

Times and Time Zones

All times are in EDT time to prevent confusion due to time zone crossing. See the N717MB flight status page for this flight to view local times or setup timezone preferences in your user account.

Time Position Orientation Groundspeed Altitude Reporting Facility
EDT Latitude Longitude Course Direction KTS MPH feet Rate Location/Type
Wed 02:41:46 PM 44.4636 -95.8453 115° Southeast 155 178 2,400  Level Minneapolis Center
Wed 02:42:48 PM 44.4900 -95.7917 55° Northeast 191 220 5,500 2,806 Climbing Minneapolis Center
Wed 02:43:50 PM 44.4650 -95.7158 115° Southeast 203 234 8,200 3,097 Climbing Minneapolis Center
Wed 02:44:52 PM 44.4283 -95.6181 118° Southeast 263 303 11,900 3,610 Climbing Minneapolis Center
Wed 02:45:53 PM 44.3889 -95.5150 118° Southeast 293 337 15,600 3,561 Climbing Minneapolis Center
Wed 02:46:55 PM 44.3456 -95.4203 123° Southeast 291 335 19,200 2,952 Climbing Minneapolis Center
Wed 02:47:00 PM 44.1518 -95.0383 115° Southeast  Level FlightAware
Wed 02:47:57 PM 44.2908 -95.3289 130° Southeast 299 344 21,700  Level Minneapolis Center
Wed 02:48:59 PM 44.2289 -95.2244 130° Southeast 338 389 24,200 2,661 Climbing Minneapolis Center
Wed 02:50:01 PM 44.1500 -95.0947 130° Southeast 362 417 27,200 2,661 Climbing Minneapolis Center
Wed 02:51:03 PM 44.0842 -94.9833 129° Southeast 369 425 29,700 2,419 Climbing Minneapolis Center
Wed 02:52:05 PM 44.0181 -94.8736 130° Southeast 370 426 32,200 2,049 Climbing Minneapolis Center
Wed 02:53:06 PM 43.9656 -94.7875 130° Southeast 366 421 33,900 1,742 Climbing Minneapolis Center
Wed 02:54:09 PM 43.8878 -94.6575 130° Southeast 365 420 35,800 1,536 Climbing Minneapolis Center
Wed 02:55:11 PM 43.8225 -94.5475 129° Southeast 368 423 37,100 1,210 Climbing Minneapolis Center
Wed 02:56:13 PM 43.7367 -94.4122 131° Southeast 381 438 38,300 1,016 Climbing Minneapolis Center
Wed 02:57:15 PM 43.6669 -94.2953 129° Southeast 391 450 39,200 780 Climbing Minneapolis Center
Wed 02:58:16 PM 43.5961 -94.1806 130° Southeast 397 457 39,900 780 Climbing Minneapolis Center
Wed 02:59:18 PM 43.5214 -94.0575 130° Southeast 404 465 40,800 532 Climbing Minneapolis Center
Wed 03:00:20 PM 43.4481 -93.9400 131° Southeast 407 468 41,000 97 Climbing Minneapolis Center
Wed 03:01:22 PM 43.3714 -93.8178 131° Southeast 418 481 41,000  Level Minneapolis Center
Wed 03:02:24 PM 43.3094 -93.7164 130° Southeast 429 494 41,000  Level Minneapolis Center
Wed 03:03:26 PM 43.1969 -93.5378 131° Southeast 443 510 41,000  Level Minneapolis Center
Wed 03:04:28 PM 43.1164 -93.4111 131° Southeast 445 512 41,000  Level Minneapolis Center
Wed 03:05:30 PM 43.0369 -93.2847 131° Southeast 444 511 41,000  Level Minneapolis Center
Wed 03:06:32 PM 42.9542 -93.1594 132° Southeast 448 516 41,000  Level Minneapolis Center
Wed 03:07:26 PM 42.8739 -93.0322 131° Southeast 444 511 41,000  Level Chicago Center
Wed 03:08:28 PM 42.7936 -92.9075 131° Southeast 444 511 41,000  Level Chicago Center
Wed 03:09:30 PM 42.7128 -92.7831 131° Southeast 444 511 41,000  Level Chicago Center
Wed 03:10:32 PM 42.6319 -92.6586 131° Southeast 445 512 41,000  Level Chicago Center
Wed 03:11:34 PM 42.5356 -92.5083 131° Southeast 446 513 41,000  Level Chicago Center
Wed 03:12:37 PM 42.4547 -92.3844 131° Southeast 446 513 41,000  Level Chicago Center
Wed 03:13:39 PM 42.3744 -92.2617 131° Southeast 443 510 41,000  Level Chicago Center
Wed 03:14:41 PM 42.2931 -92.1381 132° Southeast 445 512 41,000  Level Chicago Center
Wed 03:15:43 PM 42.1956 -91.9903 132° Southeast 443 510 41,000  Level Chicago Center
Wed 03:16:45 PM 42.1136 -91.8678 132° Southeast 447 514 41,000  Level Chicago Center
Wed 03:17:47 PM 42.0308 -91.7444 132° Southeast 449 517 41,000  Level Chicago Center
Wed 03:18:49 PM 41.9481 -91.6214 132° Southeast 449 517 41,000  Level Chicago Center
Wed 03:19:51 PM 41.8489 -91.4739 132° Southeast 449 517 41,000  Level Chicago Center
Wed 03:20:53 PM 41.7661 -91.3508 132° Southeast 450 518 41,000  Level Chicago Center
Wed 03:21:56 PM 41.6822 -91.2303 133° Southeast 448 516 41,000  Level Chicago Center
Wed 03:22:58 PM 41.5992 -91.1075 132° Southeast 449 517 41,000  Level Chicago Center
Wed 03:24:00 PM 41.5139 -90.9844 133° Southeast 445 512 41,000  Level Chicago Center
Wed 03:25:02 PM 41.4306 -90.8603 132° Southeast 448 516 41,000  Level Chicago Center
Wed 03:26:04 PM 41.3289 -90.7131 133° Southeast 449 517 41,000  Level Chicago Center
Wed 03:27:06 PM 41.2439 -90.5922 133° Southeast 449 517 41,000  Level Chicago Center
Wed 03:28:08 PM 41.1583 -90.4703 133° Southeast 451 519 41,000  Level Chicago Center
Wed 03:29:10 PM 41.0744 -90.3494 133° Southeast 448 516 41,000  Level Chicago Center
Wed 03:30:13 PM 40.9758 -90.2097 133° Southeast 448 516 41,000  Level Chicago Center
Wed 03:31:15 PM 40.8917 -90.0900 133° Southeast 448 516 41,000  Level Chicago Center
Wed 03:32:17 PM 40.8086 -89.9717 133° Southeast 446 513 41,000  Level Chicago Center
Wed 03:33:19 PM 40.7242 -89.8528 133° Southeast 446 513 41,000  Level Chicago Center
Wed 03:34:21 PM 40.6575 -89.7139 122° Southeast 456 525 41,000  Level Chicago Center
Wed 03:35:23 PM 40.6011 -89.5311 112° Southeast 462 532 41,000  Level Chicago Center
Wed 03:36:25 PM 40.5539 -89.3756 112° Southeast 459 528 41,000  Level Chicago Center
Wed 03:37:27 PM 40.5064 -89.2206 112° Southeast 459 528 41,000  Level Chicago Center
Wed 03:38:30 PM 40.4600 -89.0672 112° Southeast 453 521 41,000  Level Chicago Center
Wed 03:39:32 PM 40.4144 -88.9142 111° Southeast 450 518 41,000  Level Chicago Center
Wed 03:40:34 PM 40.3733 -88.7253 106° East 448 516 41,000 -290 Level Chicago Center
Wed 03:41:36 PM 40.3375 -88.5714 107° East 442 509 40,400 -629 Descending Chicago Center
Wed 03:42:38 PM 40.3061 -88.4278 106° East 426 490 39,700 -1,016 Descending Chicago Center
Wed 03:43:40 PM 40.2725 -88.2797 107° East 427 491 38,300 -1,597 Descending Chicago Center
Wed 03:44:42 PM 40.2319 -88.1006 106° East 430 495 36,400 -1,584 Descending Chicago Center
Wed 03:45:45 PM 40.1981 -87.9531 107° East 428 493 35,000 -672 Descending Chicago Center
Wed 03:46:47 PM 40.1647 -87.8103 107° East 415 478 35,000  Level Chicago Center
Wed 03:47:49 PM 40.1306 -87.6642 107° East 420 483 35,000  Level Chicago Center
Wed 03:48:51 PM 40.0972 -87.5228 107° East 410 472 35,000  Level Chicago Center
Wed 03:49:53 PM 40.0642 -87.3869 108° East 396 456 35,000  Level Chicago Center
Wed 03:50:55 PM 40.0264 -87.2261 107° East 389 448 35,000  Level Chicago Center
Wed 03:51:57 PM 39.9936 -87.0928 108° East 388 447 35,000  Level Chicago Center
Wed 03:53:12 PM 39.9528 -86.9311 108° East 387 445 35,000 -176 Level Indianapolis Center
Wed 03:54:13 PM 39.9203 -86.7969 107° East 388 447 34,600 -537 Descending Indianapolis Center
Wed 03:55:15 PM 39.8864 -86.6603 108° East 396 456 33,900 -774 Descending Indianapolis Center
Wed 03:56:17 PM 39.8531 -86.5231 108° East 397 457 33,000 -435 Descending Indianapolis Center
Wed 03:57:19 PM 39.8331 -86.3797 100° East 406 467 33,000 -98 Level Indianapolis Center
Wed 03:58:20 PM 39.8486 -86.2183 83° East 441 507 32,800 -585 Descending Indianapolis Center
Wed 03:59:22 PM 39.8811 -86.0583 75° East 454 522 31,800 -1,210 Descending Indianapolis Center
Wed 04:00:24 PM 39.9214 -85.8667 75° East 457 526 30,300 -1,210 Descending Indianapolis Center
Wed 04:01:26 PM 39.9542 -85.7094 75° East 453 521 29,300 -634 Descending Indianapolis Center
Wed 04:02:27 PM 39.9858 -85.5542 75° East 445 512 29,000 -146 Descending Indianapolis Center
Wed 04:03:29 PM 40.0169 -85.4031 75° East 435 501 29,000  Level Indianapolis Center
Wed 04:04:31 PM 40.0472 -85.2525 75° East 431 496 29,000  Level Indianapolis Center
Wed 04:05:33 PM 40.0792 -85.0975 75° East 443 510 29,000  Level Indianapolis Center
Wed 04:06:35 PM 40.1128 -84.9333 75° East 467 537 29,000  Level Indianapolis Center
Wed 04:07:36 PM 40.1511 -84.7386 75° East 473 544 29,000 -244 Level Indianapolis Center
Wed 04:08:38 PM 40.1825 -84.5794 75° East 447 514 28,500 -968 Descending Indianapolis Center
Wed 04:09:40 PM 40.2144 -84.4242 75° East 436 502 27,000 -1,452 Descending Indianapolis Center
Wed 04:10:42 PM 40.2436 -84.2719 76° East 428 493 25,500 -1,463 Descending Indianapolis Center
Wed 04:11:43 PM 40.2739 -84.1164 76° East 435 501 24,000 -2,000 Descending Indianapolis Center
Wed 04:12:45 PM 40.3042 -83.9619 76° East 431 496 21,400 -2,789 Descending Indianapolis Center
Wed 04:13:37 PM 40.3314 -83.8206 76° East 417 480 18,700 -2,927 Descending Indianapolis Center
Wed 04:14:48 PM 40.3619 -83.6686 75° East 404 465 15,400 -3,031 Descending Indianapolis Center
Wed 04:15:14 PM 40.3778 -83.5911 75° East 394 453 13,800 -2,710 Descending Indianapolis Center
Wed 04:15:50 PM 40.3892 -83.5292 76° East 392 451 12,600 -2,459 Descending Indianapolis Center
Wed 04:16:15 PM 40.3953 -83.4617 83° East 352 405 11,300 -1,935 Descending Indianapolis Center
Wed 04:16:52 PM 40.3758 -83.3936 111° Southeast 317 365 10,600 -984 Descending Indianapolis Center
Wed 04:17:16 PM 40.3614 -83.3508 114° Southeast 298 343 10,300 -1,065 Descending Indianapolis Center
Wed 04:17:54 PM 40.3442 -83.2911 111° Southeast 300 345 9,500 -1,522 Descending Indianapolis Center
Wed 04:18:23 PM 40.3358 -83.2383 102° East 298 343 8,600 -2,000 Descending Indianapolis Center
Wed 04:19:18 PM 40.3192 -83.1461 103° East 282 325 6,700 -2,234 Descending Indianapolis Center
Wed 04:19:57 PM 40.3075 -83.0864 104° East 282 325 5,100 -2,100 Descending Indianapolis Center
Wed 04:20:18 PM 40.3006 -83.0508 104° East 273 314 4,600 -1,161 Descending Indianapolis Center
Wed 04:20:59 PM 40.2875 -82.9922 106° East 273 314 3,900 -1,082 Descending Indianapolis Center
Wed 04:21:19 PM 40.2772 -82.9636 115° Southeast 247 284 3,500 -871 Descending Indianapolis Center
Wed 04:22:01 PM 40.2611 -82.9089 111° Southeast 258 297 3,000 -492 Descending Indianapolis Center
Wed 04:22:20 PM 40.2514 -82.8814 115° Southeast 242 278 3,000  Level Indianapolis Center
Wed 04:23:02 PM 40.2317 -82.8297 117° Southeast 247 284 3,000  Level Indianapolis Center
Wed 04:23:21 PM 40.2192 -82.8011 120° Southeast 245 282 3,000  Level Indianapolis Center
Wed 04:24:04 PM 40.1978 -82.7483 118° Southeast 247 284 3,000  Level Indianapolis Center
Wed 04:24:22 PM 40.1828 -82.7153 121° Southeast 250 288 3,000  Level Indianapolis Center
Wed 04:25:06 PM 40.1647 -82.6719 119° Southeast 245 282 3,000  Level Indianapolis Center
Wed 04:25:23 PM 40.1519 -82.6464 123° Southeast 213 245 3,000  Level Indianapolis Center
Wed 04:26:07 PM 40.1294 -82.5992 122° Southeast 229 264 3,000  Level Indianapolis Center

Login

Don't have an account? Register now (free) for customized features, flight alerts, and more!